Year,Month,Day,Hour,Minute,Value (Times are PST for windgust in km/hr)
2016,03,01,00,00,69.20
2016,03,01,00,01,69.20
2016,03,01,00,02,70.80
2016,03,01,00,03,72.40
2016,03,01,00,04,67.60
2016,03,01,00,05,69.20
2016,03,01,00,06,67.60
2016,03,01,00,07,64.40
2016,03,01,00,08,70.80
2016,03,01,00,09,69.20
2016,03,01,00,10,72.40
2016,03,01,00,11,72.40
2016,03,01,00,12,72.40
2016,03,01,00,13,69.20
2016,03,01,00,14,70.80
2016,03,01,00,15,67.60
2016,03,01,00,16,69.20
2016,03,01,00,17,66.00
2016,03,01,00,18,67.60
2016,03,01,00,19,70.80
2016,03,01,00,20,67.60
2016,03,01,00,21,70.80
2016,03,01,00,22,69.20
2016,03,01,00,23,67.60
2016,03,01,00,24,66.00
2016,03,01,00,25,59.50
2016,03,01,00,26,57.90
2016,03,01,00,27,61.20
2016,03,01,00,28,56.30
2016,03,01,00,29,66.00
2016,03,01,00,30,67.60
2016,03,01,00,31,62.70
2016,03,01,00,32,61.20
2016,03,01,00,33,61.20
2016,03,01,00,34,59.50
2016,03,01,00,35,59.50
2016,03,01,00,36,57.90
2016,03,01,00,37,61.20
2016,03,01,00,38,62.70
2016,03,01,00,39,57.90
2016,03,01,00,40,61.20
2016,03,01,00,41,57.90
2016,03,01,00,42,61.20
2016,03,01,00,43,57.90
2016,03,01,00,44,59.50
2016,03,01,00,45,59.50
2016,03,01,00,46,61.20
2016,03,01,00,47,64.40
2016,03,01,00,48,62.70
2016,03,01,00,49,67.60
2016,03,01,00,50,64.40
2016,03,01,00,51,61.20
2016,03,01,00,52,61.20
2016,03,01,00,53,66.00
2016,03,01,00,54,64.40
2016,03,01,00,55,67.60
2016,03,01,00,56,67.60
2016,03,01,00,57,67.60
2016,03,01,00,58,64.40
2016,03,01,00,59,66.00
2016,03,01,01,00,69.20
2016,03,01,01,01,69.20
2016,03,01,01,02,64.40
2016,03,01,01,03,59.50
2016,03,01,01,04,66.00
2016,03,01,01,05,69.20
2016,03,01,01,06,70.80
2016,03,01,01,07,64.40
2016,03,01,01,08,64.40
2016,03,01,01,09,72.40
2016,03,01,01,10,66.00
2016,03,01,01,11,62.70
2016,03,01,01,12,69.20
2016,03,01,01,13,70.80
2016,03,01,01,14,64.40
2016,03,01,01,15,59.50
2016,03,01,01,16,67.60
2016,03,01,01,17,67.60
2016,03,01,01,18,61.20
2016,03,01,01,19,61.20
2016,03,01,01,20,61.20
2016,03,01,01,21,62.70
2016,03,01,01,22,61.20
2016,03,01,01,23,64.40
2016,03,01,01,24,59.50
2016,03,01,01,25,59.50
2016,03,01,01,26,59.50
2016,03,01,01,27,57.90
2016,03,01,01,28,62.70
2016,03,01,01,29,62.70
2016,03,01,01,30,62.70
2016,03,01,01,31,62.70
2016,03,01,01,32,59.50
2016,03,01,01,33,57.90
2016,03,01,01,34,61.20
2016,03,01,01,35,61.20
2016,03,01,01,36,57.90
2016,03,01,01,37,64.40
2016,03,01,01,38,62.70
2016,03,01,01,39,57.90
2016,03,01,01,40,57.90
2016,03,01,01,41,62.70
2016,03,01,01,42,64.40
2016,03,01,01,43,64.40
2016,03,01,01,44,57.90
2016,03,01,01,45,62.70
2016,03,01,01,46,64.40
2016,03,01,01,47,62.70
2016,03,01,01,48,62.70
2016,03,01,01,49,57.90
2016,03,01,01,50,59.50
2016,03,01,01,51,59.50
2016,03,01,01,52,61.20
2016,03,01,01,53,59.50
2016,03,01,01,54,57.90
2016,03,01,01,55,62.70
2016,03,01,01,56,66.00
2016,03,01,01,57,56.30
2016,03,01,01,58,53.10
2016,03,01,01,59,57.90
2016,03,01,02,00,62.70
2016,03,01,02,01,57.90
2016,03,01,02,02,57.90
2016,03,01,02,03,64.40
2016,03,01,02,04,61.20
2016,03,01,02,05,59.50
2016,03,01,02,06,57.90
2016,03,01,02,07,66.00
2016,03,01,02,08,59.50
2016,03,01,02,09,59.50
2016,03,01,02,10,54.70
2016,03,01,02,11,59.50
2016,03,01,02,12,59.50
2016,03,01,02,13,64.40
2016,03,01,02,14,59.50
2016,03,01,02,15,57.90
2016,03,01,02,16,56.30
2016,03,01,02,17,59.50
2016,03,01,02,18,57.90
2016,03,01,02,19,56.30
2016,03,01,02,20,57.90
2016,03,01,02,21,62.70
2016,03,01,02,22,62.70
2016,03,01,02,23,61.20
2016,03,01,02,24,59.50
2016,03,01,02,25,59.50
2016,03,01,02,26,59.50
2016,03,01,02,27,57.90
2016,03,01,02,28,64.40
2016,03,01,02,29,67.60
2016,03,01,02,30,62.70
2016,03,01,02,31,62.70
2016,03,01,02,32,59.50
2016,03,01,02,33,62.70
2016,03,01,02,34,59.50
2016,03,01,02,35,62.70
2016,03,01,02,36,66.00
2016,03,01,02,37,62.70
2016,03,01,02,38,64.40
2016,03,01,02,39,57.90
2016,03,01,02,40,59.50
2016,03,01,02,41,62.70
2016,03,01,02,42,59.50
2016,03,01,02,43,53.10
2016,03,01,02,44,62.70
2016,03,01,02,45,64.40
2016,03,01,02,46,59.50
2016,03,01,02,47,57.90
2016,03,01,02,48,59.50
2016,03,01,02,49,61.20
2016,03,01,02,50,61.20
2016,03,01,02,51,56.30
2016,03,01,02,52,59.50
2016,03,01,02,53,57.90
2016,03,01,02,54,56.30
2016,03,01,02,55,57.90
2016,03,01,02,56,62.70
2016,03,01,02,57,61.20
2016,03,01,02,58,64.40
2016,03,01,02,59,56.30
2016,03,01,03,00,59.50
2016,03,01,03,01,57.90
2016,03,01,03,02,57.90
2016,03,01,03,03,56.30
2016,03,01,03,04,56.30
2016,03,01,03,05,53.10
2016,03,01,03,06,56.30
2016,03,01,03,07,53.10
2016,03,01,03,08,56.30
2016,03,01,03,09,59.50
2016,03,01,03,10,57.90
2016,03,01,03,11,59.50
2016,03,01,03,12,61.20
2016,03,01,03,13,59.50
2016,03,01,03,14,57.90
2016,03,01,03,15,61.20
2016,03,01,03,16,62.70
2016,03,01,03,17,59.50
2016,03,01,03,18,54.70
2016,03,01,03,19,61.20
2016,03,01,03,20,59.50
2016,03,01,03,21,59.50
2016,03,01,03,22,59.50
2016,03,01,03,23,56.30
2016,03,01,03,24,61.20
2016,03,01,03,25,57.90
2016,03,01,03,26,51.50
2016,03,01,03,27,54.70
2016,03,01,03,28,54.70
2016,03,01,03,29,51.50
2016,03,01,03,30,53.10
2016,03,01,03,31,59.50
2016,03,01,03,32,59.50
2016,03,01,03,33,56.30
2016,03,01,03,34,56.30
2016,03,01,03,35,59.50
2016,03,01,03,36,54.70
2016,03,01,03,37,57.90
2016,03,01,03,38,59.50
2016,03,01,03,39,57.90
2016,03,01,03,40,54.70
2016,03,01,03,41,59.50
2016,03,01,03,42,57.90
2016,03,01,03,43,53.10
2016,03,01,03,44,56.30
2016,03,01,03,45,57.90
2016,03,01,03,46,57.90
2016,03,01,03,47,53.10
2016,03,01,03,48,51.50
2016,03,01,03,49,57.90
2016,03,01,03,50,57.90
2016,03,01,03,51,57.90
2016,03,01,03,52,56.30
2016,03,01,03,53,57.90
2016,03,01,03,54,54.70
2016,03,01,03,55,54.70
2016,03,01,03,56,51.50
2016,03,01,03,57,49.90
2016,03,01,03,58,49.90
2016,03,01,03,59,49.90
2016,03,01,04,00,49.90
2016,03,01,04,01,49.90
2016,03,01,04,02,49.90
2016,03,01,04,03,49.90
2016,03,01,04,04,59.50
2016,03,01,04,05,64.40
2016,03,01,04,06,62.70
2016,03,01,04,07,56.30
2016,03,01,04,08,57.90
2016,03,01,04,09,57.90
2016,03,01,04,10,57.90
2016,03,01,04,11,57.90
2016,03,01,04,12,59.50
2016,03,01,04,13,57.90
2016,03,01,04,14,56.30
2016,03,01,04,15,57.90
2016,03,01,04,16,56.30
2016,03,01,04,17,62.70
2016,03,01,04,18,59.50
2016,03,01,04,19,62.70
2016,03,01,04,20,61.20
2016,03,01,04,21,57.90
2016,03,01,04,22,59.50
2016,03,01,04,23,67.60
2016,03,01,04,24,62.70
2016,03,01,04,25,56.30
2016,03,01,04,26,54.70
2016,03,01,04,27,67.60
2016,03,01,04,28,62.70
2016,03,01,04,29,57.90
2016,03,01,04,30,57.90
2016,03,01,04,31,62.70
2016,03,01,04,32,67.60
2016,03,01,04,33,62.70
2016,03,01,04,34,67.60
2016,03,01,04,35,66.00
2016,03,01,04,36,69.20
2016,03,01,04,37,70.80
2016,03,01,04,38,67.60
2016,03,01,04,39,54.70
2016,03,01,04,40,56.30
2016,03,01,04,41,57.90
2016,03,01,04,42,66.00
2016,03,01,04,43,62.70
2016,03,01,04,44,56.30
2016,03,01,04,45,56.30
2016,03,01,04,46,57.90
2016,03,01,04,47,66.00
2016,03,01,04,48,62.70
2016,03,01,04,49,61.20
2016,03,01,04,50,56.30
2016,03,01,04,51,57.90
2016,03,01,04,52,61.20
2016,03,01,04,53,61.20
2016,03,01,04,54,61.20
2016,03,01,04,55,59.50
2016,03,01,04,56,61.20
2016,03,01,04,57,56.30
2016,03,01,04,58,61.20
2016,03,01,04,59,59.50
2016,03,01,05,00,67.60
2016,03,01,05,01,59.50
2016,03,01,05,02,62.70
2016,03,01,05,03,66.00
2016,03,01,05,04,61.20
2016,03,01,05,05,67.60
2016,03,01,05,06,57.90
2016,03,01,05,07,62.70
2016,03,01,05,08,64.40
2016,03,01,05,09,56.30
2016,03,01,05,10,66.00
2016,03,01,05,11,62.70
2016,03,01,05,12,59.50
2016,03,01,05,13,57.90
2016,03,01,05,14,62.70
2016,03,01,05,15,59.50
2016,03,01,05,16,59.50
2016,03,01,05,17,66.00
2016,03,01,05,18,64.40
2016,03,01,05,19,61.20
2016,03,01,05,20,59.50
2016,03,01,05,21,62.70
2016,03,01,05,22,59.50
2016,03,01,05,23,62.70
2016,03,01,05,24,62.70
2016,03,01,05,25,59.50
2016,03,01,05,26,62.70
2016,03,01,05,27,66.00
2016,03,01,05,28,61.20
2016,03,01,05,29,56.30
2016,03,01,05,30,66.00
2016,03,01,05,31,67.60
2016,03,01,05,32,59.50
2016,03,01,05,33,64.40
2016,03,01,05,34,57.90
2016,03,01,05,35,61.20
2016,03,01,05,36,61.20
2016,03,01,05,37,61.20
2016,03,01,05,38,61.20
2016,03,01,05,39,67.60
2016,03,01,05,40,69.20
2016,03,01,05,41,66.00
2016,03,01,05,42,62.70
2016,03,01,05,43,62.70
2016,03,01,05,44,66.00
2016,03,01,05,45,61.20
2016,03,01,05,46,64.40
2016,03,01,05,47,59.50
2016,03,01,05,48,64.40
2016,03,01,05,49,67.60
2016,03,01,05,50,66.00
2016,03,01,05,51,62.70
2016,03,01,05,52,57.90
2016,03,01,05,53,64.40
2016,03,01,05,54,66.00
2016,03,01,05,55,67.60
2016,03,01,05,56,66.00
2016,03,01,05,57,57.90
2016,03,01,05,58,57.90
2016,03,01,05,59,53.10
2016,03,01,06,00,66.00
2016,03,01,06,01,67.60
2016,03,01,06,02,66.00
2016,03,01,06,03,62.70
2016,03,01,06,04,51.50
2016,03,01,06,05,57.90
2016,03,01,06,06,62.70
2016,03,01,06,07,61.20
2016,03,01,06,08,69.20
2016,03,01,06,09,64.40
2016,03,01,06,10,59.50
2016,03,01,06,11,62.70
2016,03,01,06,12,53.10
2016,03,01,06,13,53.10
2016,03,01,06,14,53.10
2016,03,01,06,15,53.10
2016,03,01,06,16,57.90
2016,03,01,06,17,53.10
2016,03,01,06,18,49.90
2016,03,01,06,19,53.10
2016,03,01,06,20,53.10
2016,03,01,06,21,49.90
2016,03,01,06,22,49.90
2016,03,01,06,23,53.10
2016,03,01,06,24,53.10
2016,03,01,06,25,53.10
2016,03,01,06,26,53.10
2016,03,01,06,27,49.90
2016,03,01,06,28,51.50
2016,03,01,06,29,49.90
2016,03,01,06,30,57.90
2016,03,01,06,31,54.70
2016,03,01,06,32,57.90
2016,03,01,06,33,51.50
2016,03,01,06,34,56.30
2016,03,01,06,35,56.30
2016,03,01,06,36,56.30
2016,03,01,06,37,53.10
2016,03,01,06,38,54.70
2016,03,01,06,39,53.10
2016,03,01,06,40,49.90
2016,03,01,06,41,51.50
2016,03,01,06,42,53.10
2016,03,01,06,43,57.90
2016,03,01,06,44,57.90
2016,03,01,06,45,51.50
2016,03,01,06,46,49.90
2016,03,01,06,47,51.50
2016,03,01,06,48,53.10
2016,03,01,06,49,48.30
2016,03,01,06,50,49.90
2016,03,01,06,51,48.30
2016,03,01,06,52,53.10
2016,03,01,06,53,46.70
2016,03,01,06,54,48.30
2016,03,01,06,55,54.70
2016,03,01,06,56,46.70
2016,03,01,06,57,46.70
2016,03,01,06,58,46.70
2016,03,01,06,59,51.50
2016,03,01,07,00,51.50
2016,03,01,07,01,46.70
2016,03,01,07,02,51.50
2016,03,01,07,03,46.70
2016,03,01,07,04,54.70
2016,03,01,07,05,49.90
2016,03,01,07,06,53.10
2016,03,01,07,07,59.50
2016,03,01,07,08,51.50
2016,03,01,07,09,51.50
2016,03,01,07,10,46.70
2016,03,01,07,11,49.90
2016,03,01,07,12,56.30
2016,03,01,07,13,53.10
2016,03,01,07,14,48.30
2016,03,01,07,15,54.70
2016,03,01,07,16,51.50
2016,03,01,07,17,53.10
2016,03,01,07,18,53.10
2016,03,01,07,19,53.10
2016,03,01,07,20,53.10
2016,03,01,07,21,57.90
2016,03,01,07,22,53.10
2016,03,01,07,23,57.90
2016,03,01,07,24,57.90
2016,03,01,07,25,54.70
2016,03,01,07,26,56.30
2016,03,01,07,27,59.50
2016,03,01,07,28,53.10
2016,03,01,07,29,66.00
2016,03,01,07,30,62.70
2016,03,01,07,31,62.70
2016,03,01,07,32,67.60
2016,03,01,07,33,67.60
2016,03,01,07,34,62.70
2016,03,01,07,35,70.80
2016,03,01,07,36,66.00
2016,03,01,07,37,72.40
2016,03,01,07,38,74.00
2016,03,01,07,39,69.20
2016,03,01,07,40,67.60
2016,03,01,07,41,67.60
2016,03,01,07,42,66.00
2016,03,01,07,43,67.60
2016,03,01,07,44,67.60
2016,03,01,07,45,72.40
2016,03,01,07,46,70.80
2016,03,01,07,47,72.40
2016,03,01,07,48,69.20
2016,03,01,07,49,75.60
2016,03,01,07,50,74.00
2016,03,01,07,51,75.60
2016,03,01,07,52,69.20
2016,03,01,07,53,66.00
2016,03,01,07,54,67.60
2016,03,01,07,55,66.00
2016,03,01,07,56,67.60
2016,03,01,07,57,72.40
2016,03,01,07,58,70.80
2016,03,01,07,59,70.80
2016,03,01,08,00,70.80
2016,03,01,08,01,70.80
2016,03,01,08,02,70.80
2016,03,01,08,03,70.80
2016,03,01,08,04,70.80
2016,03,01,08,05,70.80
2016,03,01,08,06,72.40
2016,03,01,08,07,62.70
2016,03,01,08,08,57.90
2016,03,01,08,09,62.70
2016,03,01,08,10,74.00
2016,03,01,08,11,75.60
2016,03,01,08,12,74.00
2016,03,01,08,13,66.00
2016,03,01,08,14,70.80
2016,03,01,08,15,61.20
2016,03,01,08,16,57.90
2016,03,01,08,17,59.50
2016,03,01,08,18,59.50
2016,03,01,08,19,61.20
2016,03,01,08,20,59.50
2016,03,01,08,21,57.90
2016,03,01,08,22,66.00
2016,03,01,08,23,62.70
2016,03,01,08,24,56.30
2016,03,01,08,25,57.90
2016,03,01,08,26,64.40
2016,03,01,08,27,72.40
2016,03,01,08,28,70.80
2016,03,01,08,29,67.60
2016,03,01,08,30,69.20
2016,03,01,08,31,64.40
2016,03,01,08,32,62.70
2016,03,01,08,33,66.00
2016,03,01,08,34,62.70
2016,03,01,08,35,72.40
2016,03,01,08,36,66.00
2016,03,01,08,37,72.40
2016,03,01,08,38,66.00
2016,03,01,08,39,74.00
2016,03,01,08,40,72.40
2016,03,01,08,41,72.40
2016,03,01,08,42,72.40
2016,03,01,08,43,72.40
2016,03,01,08,44,74.00
2016,03,01,08,45,77.30
2016,03,01,08,46,72.40
2016,03,01,08,47,74.00
2016,03,01,08,48,74.00
2016,03,01,08,49,74.00
2016,03,01,08,50,78.80
2016,03,01,08,51,75.60
2016,03,01,08,52,67.60
2016,03,01,08,53,75.60
2016,03,01,08,54,70.80
2016,03,01,08,55,75.60
2016,03,01,08,56,77.30
2016,03,01,08,57,77.30
2016,03,01,08,58,72.40
2016,03,01,08,59,72.40
2016,03,01,09,00,70.80
2016,03,01,09,01,67.60
2016,03,01,09,02,75.60
2016,03,01,09,03,72.40
2016,03,01,09,04,70.80
2016,03,01,09,05,72.40
2016,03,01,09,06,74.00
2016,03,01,09,07,72.40
2016,03,01,09,08,75.60
2016,03,01,09,09,75.60
2016,03,01,09,10,77.30
2016,03,01,09,11,72.40
2016,03,01,09,12,74.00
2016,03,01,09,13,75.60
2016,03,01,09,14,75.60
2016,03,01,09,15,72.40
2016,03,01,09,16,77.30
2016,03,01,09,17,72.40
2016,03,01,09,18,69.20
2016,03,01,09,19,70.80
2016,03,01,09,20,72.40
2016,03,01,09,21,75.60
2016,03,01,09,22,74.00
2016,03,01,09,23,77.30
2016,03,01,09,24,74.00
2016,03,01,09,25,74.00
2016,03,01,09,26,74.00
2016,03,01,09,27,70.80
2016,03,01,09,28,74.00
2016,03,01,09,29,67.60
2016,03,01,09,30,70.80
2016,03,01,09,31,70.80
2016,03,01,09,32,69.20
2016,03,01,09,33,70.80
2016,03,01,09,34,70.80
2016,03,01,09,35,69.20
2016,03,01,09,36,74.00
2016,03,01,09,37,69.20
2016,03,01,09,38,69.20
2016,03,01,09,39,75.60
2016,03,01,09,40,72.40
2016,03,01,09,41,74.00
2016,03,01,09,42,74.00
2016,03,01,09,43,74.00
2016,03,01,09,44,82.10
2016,03,01,09,45,70.80
2016,03,01,09,46,77.30
2016,03,01,09,47,70.80
2016,03,01,09,48,69.20
2016,03,01,09,49,69.20
2016,03,01,09,50,72.40
2016,03,01,09,51,70.80
2016,03,01,09,52,74.00
2016,03,01,09,53,72.40
2016,03,01,09,54,69.20
2016,03,01,09,55,70.80
2016,03,01,09,56,70.80
2016,03,01,09,57,74.00
2016,03,01,09,58,77.30
2016,03,01,09,59,82.10
2016,03,01,10,00,70.80
2016,03,01,10,01,77.30
2016,03,01,10,02,74.00
2016,03,01,10,03,72.40
2016,03,01,10,04,69.20
2016,03,01,10,05,72.40
2016,03,01,10,06,70.80
2016,03,01,10,07,66.00
2016,03,01,10,08,75.60
2016,03,01,10,09,72.40
2016,03,01,10,10,70.80
2016,03,01,10,11,69.20
2016,03,01,10,12,83.70
2016,03,01,10,13,85.30
2016,03,01,10,14,82.10
2016,03,01,10,15,78.80
2016,03,01,10,16,80.50
2016,03,01,10,17,85.30
2016,03,01,10,18,86.90
2016,03,01,10,19,78.80
2016,03,01,10,20,83.70
2016,03,01,10,21,77.30
2016,03,01,10,22,83.70
2016,03,01,10,23,83.70
2016,03,01,10,24,82.10
2016,03,01,10,25,85.30
2016,03,01,10,26,74.00
2016,03,01,10,27,88.50
2016,03,01,10,28,77.30
2016,03,01,10,29,85.30
2016,03,01,10,30,85.30
2016,03,01,10,31,82.10
2016,03,01,10,32,78.80
2016,03,01,10,33,86.90
2016,03,01,10,34,83.70
2016,03,01,10,35,80.50
2016,03,01,10,36,80.50
2016,03,01,10,37,78.80
2016,03,01,10,38,80.50
2016,03,01,10,39,83.70
2016,03,01,10,40,85.30
2016,03,01,10,41,85.30
2016,03,01,10,42,78.80
2016,03,01,10,43,74.00
2016,03,01,10,44,77.30
2016,03,01,10,45,78.80
2016,03,01,10,46,82.10
2016,03,01,10,47,75.60
2016,03,01,10,48,72.40
2016,03,01,10,49,72.40
2016,03,01,10,50,78.80
2016,03,01,10,51,86.90
2016,03,01,10,52,86.90
2016,03,01,10,53,86.90
2016,03,01,10,54,82.10
2016,03,01,10,55,88.50
2016,03,01,10,56,86.90
2016,03,01,10,57,85.30
2016,03,01,10,58,82.10
2016,03,01,10,59,77.30
2016,03,01,11,00,75.60
2016,03,01,11,01,82.10
2016,03,01,11,02,77.30
2016,03,01,11,03,70.80
2016,03,01,11,04,77.30
2016,03,01,11,05,70.80
2016,03,01,11,06,77.30
2016,03,01,11,07,82.10
2016,03,01,11,08,75.60
2016,03,01,11,09,77.30
2016,03,01,11,10,77.30
2016,03,01,11,11,70.80
2016,03,01,11,12,74.00
2016,03,01,11,13,66.00
2016,03,01,11,14,72.40
2016,03,01,11,15,69.20
2016,03,01,11,16,66.00
2016,03,01,11,17,75.60
2016,03,01,11,18,67.60
2016,03,01,11,19,67.60
2016,03,01,11,20,69.20
2016,03,01,11,21,69.20
2016,03,01,11,22,69.20
2016,03,01,11,23,64.40
2016,03,01,11,24,66.00
2016,03,01,11,25,70.80
2016,03,01,11,26,74.00
2016,03,01,11,27,82.10
2016,03,01,11,28,75.60
2016,03,01,11,29,75.60
2016,03,01,11,30,78.80
2016,03,01,11,31,83.70
2016,03,01,11,32,91.70
2016,03,01,11,33,82.10
2016,03,01,11,34,93.30
2016,03,01,11,35,90.10
2016,03,01,11,36,101.40
2016,03,01,11,37,98.20
2016,03,01,11,38,86.90
2016,03,01,11,39,91.70
2016,03,01,11,40,82.10
2016,03,01,11,41,80.50
2016,03,01,11,42,85.30
2016,03,01,11,43,99.80
2016,03,01,11,44,96.60
2016,03,01,11,45,104.60
2016,03,01,11,46,98.20
2016,03,01,11,47,104.60
2016,03,01,11,48,96.60
2016,03,01,11,49,104.60
2016,03,01,11,50,91.70
2016,03,01,11,51,101.40
2016,03,01,11,52,101.40
2016,03,01,11,53,114.30
2016,03,01,11,54,109.40
2016,03,01,11,55,98.20
2016,03,01,11,56,104.60
2016,03,01,11,57,103.00
2016,03,01,11,58,106.20
2016,03,01,11,59,95.00
2016,03,01,12,00,106.20
2016,03,01,12,01,98.20
2016,03,01,12,02,91.70
2016,03,01,12,03,101.40
2016,03,01,12,04,101.40
2016,03,01,12,05,101.40
2016,03,01,12,06,95.00
2016,03,01,12,07,103.00
2016,03,01,12,08,103.00
2016,03,01,12,09,107.80
2016,03,01,12,10,99.80
2016,03,01,12,11,101.40
2016,03,01,12,12,101.40
2016,03,01,12,13,101.40
2016,03,01,12,14,103.00
2016,03,01,12,15,111.10
2016,03,01,12,16,107.80
2016,03,01,12,17,103.00
2016,03,01,12,18,115.90
2016,03,01,12,19,106.20
2016,03,01,12,20,96.60
2016,03,01,12,21,107.80
2016,03,01,12,22,103.00
2016,03,01,12,23,99.80
2016,03,01,12,24,96.60
2016,03,01,12,25,106.20
2016,03,01,12,26,109.40
2016,03,01,12,27,90.10
2016,03,01,12,28,109.40
2016,03,01,12,29,104.60
2016,03,01,12,30,96.60
2016,03,01,12,31,96.60
2016,03,01,12,32,103.00
2016,03,01,12,33,106.20
2016,03,01,12,34,111.10
2016,03,01,12,35,109.40
2016,03,01,12,36,99.80
2016,03,01,12,37,103.00
2016,03,01,12,38,109.40
2016,03,01,12,39,109.40
2016,03,01,12,40,101.40
2016,03,01,12,41,91.70
2016,03,01,12,42,88.50
2016,03,01,12,43,112.60
2016,03,01,12,44,107.80
2016,03,01,12,45,95.00
2016,03,01,12,46,103.00
2016,03,01,12,47,103.00
2016,03,01,12,48,98.20
2016,03,01,12,49,90.10
2016,03,01,12,50,103.00
2016,03,01,12,51,91.70
2016,03,01,12,52,99.80
2016,03,01,12,53,93.30
2016,03,01,12,54,83.70
2016,03,01,12,55,107.80
2016,03,01,12,56,98.20
2016,03,01,12,57,98.20
2016,03,01,12,58,90.10
2016,03,01,12,59,103.00
2016,03,01,13,00,103.00
2016,03,01,13,01,98.20
2016,03,01,13,02,88.50
2016,03,01,13,03,95.00
2016,03,01,13,04,96.60
2016,03,01,13,05,91.70
2016,03,01,13,06,83.70
2016,03,01,13,07,88.50
2016,03,01,13,08,91.70
2016,03,01,13,09,85.30
2016,03,01,13,10,96.60
2016,03,01,13,11,98.20
2016,03,01,13,12,93.30
2016,03,01,13,13,88.50
2016,03,01,13,14,82.10
2016,03,01,13,15,86.90
2016,03,01,13,16,99.80
2016,03,01,13,17,91.70
2016,03,01,13,18,80.50
2016,03,01,13,19,82.10
2016,03,01,13,20,91.70
2016,03,01,13,21,95.00
2016,03,01,13,22,91.70
2016,03,01,13,23,91.70
2016,03,01,13,24,80.50
2016,03,01,13,25,66.00
2016,03,01,13,26,74.00
2016,03,01,13,27,91.70
2016,03,01,13,28,96.60
2016,03,01,13,29,86.90
2016,03,01,13,30,75.60
2016,03,01,13,31,96.60
2016,03,01,13,32,90.10
2016,03,01,13,33,78.80
2016,03,01,13,34,66.00
2016,03,01,13,35,72.40
2016,03,01,13,36,78.80
2016,03,01,13,37,74.00
2016,03,01,13,38,85.30
2016,03,01,13,39,103.00
2016,03,01,13,40,103.00
2016,03,01,13,41,75.60
2016,03,01,13,42,70.80
2016,03,01,13,43,88.50
2016,03,01,13,44,72.40
2016,03,01,13,45,64.40
2016,03,01,13,46,69.20
2016,03,01,13,47,72.40
2016,03,01,13,48,90.10
2016,03,01,13,49,75.60
2016,03,01,13,50,59.50
2016,03,01,13,51,77.30
2016,03,01,13,52,74.00
2016,03,01,13,53,80.50
2016,03,01,13,54,80.50
2016,03,01,13,55,78.80
2016,03,01,13,56,72.40
2016,03,01,13,57,70.80
2016,03,01,13,58,70.80
2016,03,01,13,59,70.80
2016,03,01,14,00,70.80
2016,03,01,14,01,70.80
2016,03,01,14,02,70.80
2016,03,01,14,03,70.80
2016,03,01,14,04,70.80
2016,03,01,14,05,70.80
2016,03,01,14,06,70.80
2016,03,01,14,07,70.80
2016,03,01,14,40,22.50
2016,03,01,14,41,25.70
2016,03,01,14,42,30.60
2016,03,01,14,43,30.60
2016,03,01,14,44,35.40
2016,03,01,14,45,33.80
2016,03,01,14,46,30.60
2016,03,01,14,47,30.60
2016,03,01,14,48,29.00
2016,03,01,14,49,29.00
2016,03,01,14,50,29.00
2016,03,01,14,51,33.80
2016,03,01,14,52,35.40
2016,03,01,14,53,35.40
2016,03,01,14,54,35.40
2016,03,01,14,55,32.20
2016,03,01,14,56,35.40
2016,03,01,14,57,35.40
2016,03,01,14,58,35.40
2016,03,01,14,59,33.80
2016,03,01,15,00,32.20
2016,03,01,15,01,30.60
2016,03,01,15,02,30.60
2016,03,01,15,03,29.00
2016,03,01,15,04,29.00
2016,03,01,15,05,27.40
2016,03,01,15,06,27.40
2016,03,01,15,07,27.40
2016,03,01,15,08,27.40
2016,03,01,15,09,24.20
2016,03,01,15,10,24.20
2016,03,01,15,11,22.50
2016,03,01,15,12,24.20
2016,03,01,15,13,27.40
2016,03,01,15,14,25.70
2016,03,01,15,15,25.70
2016,03,01,15,16,27.40
2016,03,01,15,17,27.40
2016,03,01,15,18,25.70
2016,03,01,15,19,29.00
2016,03,01,15,20,27.40
2016,03,01,15,21,27.40
2016,03,01,15,22,30.60
2016,03,01,15,23,33.80
2016,03,01,15,24,30.60
2016,03,01,15,25,37.00
2016,03,01,15,26,38.60
2016,03,01,15,27,41.80
2016,03,01,15,28,40.20
2016,03,01,15,29,41.80
2016,03,01,15,30,45.10
2016,03,01,15,31,45.10
2016,03,01,15,32,53.10
2016,03,01,15,33,49.90
2016,03,01,15,34,53.10
2016,03,01,15,35,54.70
2016,03,01,15,36,57.90
2016,03,01,15,37,56.30
2016,03,01,15,38,54.70
2016,03,01,15,39,61.20
2016,03,01,15,40,59.50
2016,03,01,15,41,57.90
2016,03,01,15,42,59.50
2016,03,01,15,43,67.60
2016,03,01,15,44,66.00
2016,03,01,15,45,69.20
2016,03,01,15,46,69.20
2016,03,01,15,47,72.40
2016,03,01,15,48,75.60
2016,03,01,15,49,61.20
2016,03,01,15,50,67.60
2016,03,01,15,51,64.40
2016,03,01,15,52,67.60
2016,03,01,15,53,64.40
2016,03,01,15,54,66.00
2016,03,01,15,55,62.70
2016,03,01,15,56,61.20
2016,03,01,15,57,61.20
2016,03,01,15,58,61.20
2016,03,01,15,59,61.20
2016,03,01,16,00,59.50
2016,03,01,16,01,59.50
2016,03,01,16,02,57.90
2016,03,01,16,03,59.50
2016,03,01,16,04,61.20
2016,03,01,16,05,61.20
2016,03,01,16,06,61.20
2016,03,01,16,07,67.60
2016,03,01,16,08,67.60
2016,03,01,16,09,66.00
2016,03,01,16,10,66.00
2016,03,01,16,11,70.80
2016,03,01,16,12,70.80
2016,03,01,16,13,69.20
2016,03,01,16,14,70.80
2016,03,01,16,15,67.60
2016,03,01,16,16,78.80
2016,03,01,16,17,77.30
2016,03,01,16,18,75.60
2016,03,01,16,19,74.00
2016,03,01,16,20,66.00
2016,03,01,16,21,61.20
2016,03,01,16,22,72.40
2016,03,01,16,23,66.00
2016,03,01,16,24,59.50
2016,03,01,16,25,61.20
2016,03,01,16,26,62.70
2016,03,01,16,27,62.70
2016,03,01,16,28,49.90
2016,03,01,16,29,46.70
2016,03,01,16,30,46.70
2016,03,01,16,31,46.70
2016,03,01,16,32,45.10
2016,03,01,16,33,43.50
2016,03,01,16,34,41.80
2016,03,01,16,35,41.80
2016,03,01,16,36,43.50
2016,03,01,16,37,41.80
2016,03,01,16,38,45.10
2016,03,01,16,39,43.50
2016,03,01,16,40,37.00
2016,03,01,16,41,37.00
2016,03,01,16,42,40.20
2016,03,01,16,43,41.80
2016,03,01,16,44,37.00
2016,03,01,16,45,41.80
2016,03,01,16,46,41.80
2016,03,01,16,47,46.70
2016,03,01,16,48,49.90
2016,03,01,16,49,45.10
2016,03,01,16,50,46.70
2016,03,01,16,51,45.10
2016,03,01,16,52,45.10
2016,03,01,16,53,46.70
2016,03,01,16,54,48.30
2016,03,01,16,55,49.90
2016,03,01,16,56,46.70
2016,03,01,16,57,45.10
2016,03,01,16,58,46.70
2016,03,01,16,59,48.30
2016,03,01,17,00,46.70
2016,03,01,17,01,41.80
2016,03,01,17,02,45.10
2016,03,01,17,03,43.50
2016,03,01,17,04,40.20
2016,03,01,17,05,40.20
2016,03,01,17,06,41.80
2016,03,01,17,07,40.20
2016,03,01,17,08,40.20
2016,03,01,17,09,38.60
2016,03,01,17,10,38.60
2016,03,01,17,11,35.40
2016,03,01,17,12,33.80
2016,03,01,17,13,35.40
2016,03,01,17,14,30.60
2016,03,01,17,15,33.80
2016,03,01,17,16,32.20
2016,03,01,17,17,30.60
2016,03,01,17,18,27.40
2016,03,01,17,19,25.70
2016,03,01,17,20,27.40
2016,03,01,17,21,27.40
2016,03,01,17,22,27.40
2016,03,01,17,23,25.70
2016,03,01,17,24,25.70
2016,03,01,17,25,25.70
2016,03,01,17,26,24.20
2016,03,01,17,27,25.70
2016,03,01,17,28,25.70
2016,03,01,17,29,24.20
2016,03,01,17,30,24.20
2016,03,01,17,31,24.20
2016,03,01,17,32,25.70
2016,03,01,17,33,29.00
2016,03,01,17,34,27.40
2016,03,01,17,35,25.70
2016,03,01,17,36,27.40
2016,03,01,17,37,27.40
2016,03,01,17,38,24.20
2016,03,01,17,39,22.50
2016,03,01,17,40,22.50
2016,03,01,17,41,22.50
2016,03,01,17,42,22.50
2016,03,01,17,43,24.20
2016,03,01,17,44,27.40
2016,03,01,17,45,27.40
2016,03,01,17,46,33.80
2016,03,01,17,47,33.80
2016,03,01,17,48,33.80
2016,03,01,17,49,32.20